Red Wing, WI

3:28 PM CST on December 15, 2019 (GMT -0600)
Red Wing Municipal

Weather History for KRGK - November, 2019

Change the Weather History Date:

Friday, November 15, 2019

  Actual Average Record
Temperature  
Mean Temperature 30 °F -  
Max Temperature 39 °F 41 °F 66 °F (2001)
Min Temperature 21 °F 26 °F 1 °F (2014)
Degree Days  
Heating Degree Days 35    
Moisture  
Dew Point 27 °F    
Average Humidity 79    
Maximum Humidity 100    
Minimum Humidity 56    
Precipitation  
Precipitation 0.00 in - - ()
Sea Level Pressure  
Sea Level Pressure 30.30 in    
Wind  
Wind Speed 2 mph (ESE)    
Max Wind Speed 10 mph    
Max Gust Speed -    
Visibility 10 miles    
Events      
Averages and records for this station are not official NWS values.
T = Trace of Precipitation, MM = Missing Value Source: NWS Daily Summary

Daily Weather History Graph

Daily Weather History Graph

Search for Another Location

Airport or City:

Astronomy

Nov. 15, 2019 Rise Set
Actual Time 7:06 AM CST 4:42 PM CST
Civil Twilight 6:34 AM CST 5:13 PM CST
Nautical Twilight 5:59 AM CST 5:49 PM CST
Astronomical Twilight 5:24 AM CST 6:23 PM CST
Moon 7:13 PM CST 10:07 AM CST
Length of Visible Light 10h 39m
Length of Day
9h 36m
Waning Gibbous, 90% of the Moon is Illuminated
Nov 15
Waning Gibbous
Nov 19
Last Quarter
Nov 26
New
Dec 4
First Quarter
Dec 11
Full

Hourly Weather History & Observations

Time (CST) Temp. Windchill Dew Point Humidity Pressure Visibility Wind Dir Wind Speed Gust Speed Precip Events Conditions
12:15 AM 21.2 °F - 21.2 °F 100% 30.21 in 10.0 mi Calm Calm - N/A   Clear
12:16 AM 21.2 °F - 21.2 °F 100% 30.21 in 10.0 mi Calm Calm - N/A   Clear
12:35 AM 21.2 °F - 21.2 °F 100% 30.21 in 10.0 mi Calm Calm - N/A   Scattered Clouds
1:16 AM 26.6 °F - 26.6 °F 100% 30.22 in 10.0 mi Calm Calm - N/A   Overcast
1:35 AM 28.4 °F - 28.4 °F 100% 30.23 in 10.0 mi Calm Calm - N/A   Overcast
1:55 AM 30.2 °F - 28.4 °F 93% 30.24 in 10.0 mi Calm Calm - N/A   Overcast
1:56 AM 30.2 °F - 28.4 °F 93% 30.24 in 10.0 mi Calm Calm - N/A   Overcast
2:18 AM 30.2 °F - 28.4 °F 93% 30.24 in 10.0 mi Calm Calm - N/A   Overcast
2:37 AM 30.2 °F - 28.4 °F 93% 30.24 in 10.0 mi Calm Calm - N/A   Overcast
2:56 AM 30.2 °F - 28.4 °F 93% 30.24 in 10.0 mi Calm Calm - N/A   Overcast
3:15 AM 30.2 °F - 28.4 °F 93% 30.24 in 10.0 mi Calm Calm - N/A   Overcast
3:16 AM 30.2 °F - 28.4 °F 93% 30.24 in 10.0 mi Calm Calm - N/A   Overcast
3:35 AM 30.2 °F - 30.2 °F 100% 30.25 in 10.0 mi Calm Calm - N/A   Overcast
3:40 AM 30.2 °F - 30.2 °F 100% 30.25 in 10.0 mi Calm Calm - N/A   Overcast
3:57 AM 30.2 °F - 30.2 °F 100% 30.25 in 10.0 mi Calm Calm - N/A   Overcast
4:15 AM 30.2 °F - 30.2 °F 100% 30.25 in 10.0 mi Calm Calm - N/A   Overcast
4:35 AM 30.2 °F - 30.2 °F 100% 30.26 in 10.0 mi Calm Calm - N/A   Overcast
4:36 AM 30.2 °F - 30.2 °F 100% 30.26 in 10.0 mi Calm Calm - N/A   Overcast
4:55 AM 32.0 °F - 30.2 °F 93% 30.26 in 10.0 mi Calm Calm - N/A   Overcast
4:56 AM 32.0 °F - 30.2 °F 93% 30.26 in 10.0 mi Calm Calm - N/A   Overcast
5:19 AM 30.2 °F - 30.2 °F 100% 30.27 in 10.0 mi Calm Calm - N/A   Overcast
5:37 AM 30.2 °F - 30.2 °F 100% 30.27 in 10.0 mi Calm Calm - N/A   Overcast
5:56 AM 30.2 °F - 30.2 °F 100% 30.28 in 10.0 mi Calm Calm - N/A   Overcast
6:15 AM 30.2 °F - 30.2 °F 100% 30.28 in 10.0 mi Calm Calm - N/A   Overcast
6:16 AM 30.2 °F - 30.2 °F 100% 30.28 in 10.0 mi Calm Calm - N/A   Overcast
6:35 AM 30.2 °F - 30.2 °F 100% 30.29 in 10.0 mi Calm Calm - N/A   Overcast
6:58 AM 30.2 °F - 30.2 °F 100% 30.30 in 10.0 mi Calm Calm - N/A   Overcast
7:15 AM 30.2 °F - 30.2 °F 100% 30.30 in 7.0 mi Calm Calm - N/A   Overcast
7:35 AM 30.2 °F - 30.2 °F 100% 30.30 in 7.0 mi Calm Calm - N/A   Overcast
7:36 AM 30.2 °F - 30.2 °F 100% 30.30 in 7.0 mi Calm Calm - N/A   Overcast
7:55 AM 30.2 °F - 30.2 °F 100% 30.31 in 5.0 mi Calm Calm - N/A   Overcast
8:18 AM 32.0 °F - 32.0 °F 100% 30.32 in 7.0 mi Calm Calm - N/A   Overcast
8:36 AM 33.8 °F - 33.8 °F 100% 30.33 in 10.0 mi Calm Calm - N/A   Overcast
8:55 AM 33.8 °F - 33.8 °F 100% 30.33 in 10.0 mi Calm Calm - N/A   Overcast
9:15 AM 33.8 °F - 33.8 °F 100% 30.33 in 10.0 mi Calm Calm - N/A   Overcast
9:16 AM 33.8 °F - 33.8 °F 100% 30.33 in 10.0 mi Calm Calm - N/A   Overcast
9:35 AM 35.6 °F - 33.8 °F 93% 30.34 in 10.0 mi Calm Calm - N/A   Overcast
9:39 AM 35.6 °F - 33.8 °F 93% 30.34 in 10.0 mi Calm Calm - N/A   Overcast
9:58 AM 35.6 °F 31.7 °F 28.4 °F 75% 30.34 in 10.0 mi East 4.6 mph - N/A   Overcast
10:15 AM 35.6 °F - 28.4 °F 75% 30.35 in 10.0 mi Calm Calm - N/A   Overcast
10:36 AM 37.4 °F 34.9 °F 28.4 °F 70% 30.35 in 10.0 mi ENE 3.5 mph - N/A   Overcast
10:55 AM 37.4 °F 33.8 °F 28.4 °F 70% 30.35 in 10.0 mi NE 4.6 mph - N/A   Overcast
11:18 AM 37.4 °F 34.9 °F 28.4 °F 70% 30.35 in 10.0 mi East 3.5 mph - N/A   Overcast
11:36 AM 37.4 °F 33.8 °F 28.4 °F 70% 30.35 in 10.0 mi East 4.6 mph - N/A   Overcast
11:56 AM 37.4 °F 33.8 °F 28.4 °F 70% 30.35 in 10.0 mi East 4.6 mph - N/A   Overcast
12:15 PM 39.2 °F 35.9 °F 30.2 °F 70% 30.34 in 10.0 mi East 4.6 mph - N/A   Overcast
12:38 PM 39.2 °F 34.2 °F 30.2 °F 70% 30.34 in 10.0 mi East 6.9 mph - N/A   Mostly Cloudy
12:57 PM 39.2 °F 35.0 °F 30.2 °F 70% 30.34 in 10.0 mi East 5.8 mph - N/A   Mostly Cloudy
1:15 PM 39.2 °F 35.9 °F 30.2 °F 70% 30.34 in 10.0 mi East 4.6 mph - N/A   Mostly Cloudy
1:16 PM 39.2 °F 35.9 °F 30.2 °F 70% 30.33 in 10.0 mi ENE 4.6 mph - N/A   Mostly Cloudy
1:35 PM 39.2 °F 35.9 °F 30.2 °F 70% 30.33 in 10.0 mi NNE 4.6 mph - N/A   Scattered Clouds
1:36 PM 39.2 °F 35.9 °F 30.2 °F 70% 30.33 in 10.0 mi NE 4.6 mph - N/A   Scattered Clouds
1:55 PM 39.2 °F 35.0 °F 30.2 °F 70% 30.33 in 10.0 mi ENE 5.8 mph - N/A   Clear
1:59 PM 39.2 °F 35.9 °F 30.2 °F 70% 30.33 in 10.0 mi ENE 4.6 mph - N/A   Clear
2:16 PM 39.2 °F 35.9 °F 30.2 °F 70% 30.33 in 10.0 mi ENE 4.6 mph - N/A   Clear
2:35 PM 39.2 °F 37.0 °F 32.0 °F 75% 30.33 in 10.0 mi SE 3.5 mph - N/A   Clear
2:55 PM 39.2 °F 37.0 °F 32.0 °F 75% 30.33 in 10.0 mi ESE 3.5 mph - N/A   Clear
2:56 PM 39.2 °F - 32.0 °F 75% 30.33 in 10.0 mi Calm Calm - N/A   Clear
3:15 PM 39.2 °F 35.0 °F 32.0 °F 75% 30.33 in 10.0 mi SSE 5.8 mph - N/A   Clear
3:20 PM 39.2 °F 35.9 °F 32.0 °F 75% 30.33 in 10.0 mi South 4.6 mph - N/A   Clear
3:37 PM 39.2 °F 35.9 °F 30.2 °F 70% 30.32 in 10.0 mi SSE 4.6 mph - N/A   Clear
3:55 PM 37.4 °F 33.8 °F 30.2 °F 75% 30.32 in 10.0 mi SE 4.6 mph - N/A   Clear
4:15 PM 35.6 °F 30.7 °F 30.2 °F 81% 30.32 in 10.0 mi SE 5.8 mph - N/A   Clear
4:16 PM 35.6 °F 30.7 °F 30.2 °F 81% 30.32 in 10.0 mi ESE 5.8 mph - N/A   Clear
4:35 PM 35.6 °F 30.7 °F 28.4 °F 75% 30.31 in 10.0 mi East 5.8 mph - N/A   Clear
4:58 PM 35.6 °F 31.7 °F 26.6 °F 70% 30.31 in 10.0 mi East 4.6 mph - N/A   Clear
5:16 PM 35.6 °F 29.9 °F 24.8 °F 65% 30.31 in 10.0 mi East 6.9 mph - N/A   Clear
5:35 PM 35.6 °F 31.7 °F 23.0 °F 60% 30.32 in 10.0 mi ESE 4.6 mph - N/A   Clear
5:36 PM 35.6 °F 31.7 °F 23.0 °F 60% 30.32 in 10.0 mi ESE 4.6 mph - N/A   Clear
5:55 PM 33.8 °F 29.6 °F 21.2 °F 60% 30.32 in 10.0 mi East 4.6 mph - N/A   Clear
5:56 PM 33.8 °F 30.8 °F 21.2 °F 60% 30.32 in 10.0 mi East 3.5 mph - N/A   Clear
6:15 PM 33.8 °F 29.6 °F 21.2 °F 60% 30.32 in 10.0 mi East 4.6 mph - N/A   Clear
6:19 PM 32.0 °F 27.5 °F 21.2 °F 64% 30.32 in 10.0 mi East 4.6 mph - N/A   Clear
6:38 PM 32.0 °F 27.5 °F 21.2 °F 64% 30.32 in 10.0 mi East 4.6 mph - N/A   Clear
6:55 PM 30.2 °F 25.4 °F 19.4 °F 64% 30.33 in 10.0 mi East 4.6 mph - N/A   Clear
7:15 PM 33.8 °F 27.7 °F 19.4 °F 56% 30.33 in 10.0 mi East 6.9 mph - N/A   Clear
7:16 PM 33.8 °F 27.7 °F 19.4 °F 56% 30.33 in 10.0 mi East 6.9 mph - N/A   Clear
7:35 PM 33.8 °F 27.7 °F 19.4 °F 56% 30.33 in 10.0 mi East 6.9 mph - N/A   Clear
7:36 PM 33.8 °F 27.7 °F 19.4 °F 56% 30.33 in 10.0 mi East 6.9 mph - N/A   Clear
7:59 PM 33.8 °F 29.6 °F 19.4 °F 56% 30.32 in 10.0 mi East 4.6 mph - N/A   Clear
8:16 PM 32.0 °F 27.5 °F 19.4 °F 60% 30.32 in 10.0 mi East 4.6 mph - N/A   Clear
8:36 PM 33.8 °F 28.6 °F 19.4 °F 56% 30.32 in 10.0 mi ESE 5.8 mph - N/A   Clear
8:55 PM 33.8 °F 27.7 °F 19.4 °F 56% 30.32 in 10.0 mi ESE 6.9 mph - N/A   Clear
8:56 PM 33.8 °F 27.7 °F 19.4 °F 56% 30.32 in 10.0 mi ESE 6.9 mph - N/A   Clear
9:15 PM 33.8 °F 26.4 °F 21.2 °F 60% 30.32 in 10.0 mi SE 9.2 mph - N/A   Clear
9:37 PM 35.6 °F 29.2 °F 21.2 °F 56% 30.32 in 10.0 mi ESE 8.1 mph - N/A   Clear
9:56 PM 35.6 °F 29.2 °F 21.2 °F 56% 30.32 in 10.0 mi SE 8.1 mph - N/A   Clear
10:15 PM 33.8 °F 27.0 °F 21.2 °F 60% 30.32 in 10.0 mi SE 8.1 mph - N/A   Clear
10:16 PM 33.8 °F 27.0 °F 21.2 °F 60% 30.32 in 10.0 mi SE 8.1 mph - N/A   Clear
10:35 PM 33.8 °F 27.0 °F 23.0 °F 65% 30.32 in 10.0 mi SE 8.1 mph - N/A   Clear
10:36 PM 33.8 °F 27.0 °F 23.0 °F 65% 30.32 in 10.0 mi SE 8.1 mph - N/A   Clear
10:58 PM 33.8 °F 27.0 °F 24.8 °F 70% 30.31 in 10.0 mi SE 8.1 mph - N/A   Clear
11:17 PM 33.8 °F 27.0 °F 24.8 °F 70% 30.32 in 10.0 mi SE 8.1 mph - N/A   Clear
11:36 PM 33.8 °F 26.4 °F 24.8 °F 70% 30.31 in 10.0 mi SE 9.2 mph - N/A   Clear
11:55 PM 33.8 °F 25.8 °F 26.6 °F 75% 30.31 in 10.0 mi SE 10.4 mph - N/A   Clear
11:56 PM 33.8 °F 25.8 °F 26.6 °F 75% 30.31 in 10.0 mi SE 10.4 mph - N/A   Clear